Weather History for Devils Lake, ND

Change the Weather History Date:

Tuesday, February 18, 2014

  Actual Average Record
Temperature  
Mean Temperature 24 °F -  
Max Temperature 32 °F 22 °F 46 °F (1954)
Min Temperature 15 °F 4 °F -35 °F (1966)
Degree Days  
Heating Degree Days 42    
Moisture  
Dew Point 17 °F    
Average Humidity 70    
Maximum Humidity 80    
Minimum Humidity 64    
Precipitation  
Precipitation 0.00 in - - ()
Sea Level Pressure  
Sea Level Pressure 29.56 in    
Wind  
Wind Speed 12 mph (West)    
Max Wind Speed 20 mph    
Max Gust Speed 24 mph    
Visibility 10 miles    
Events      
Averages and records for this station are not official NWS values.
T = Trace of Precipitation, MM = Missing Value Source: NWS Daily Summary

Daily Weather History Graph

Daily Weather History Graph

Search for Another Location

Airport:

Trip Planner

Search our weather history database for the weather conditions in past years. The results will help you decide how hot, cold, wet, or windy it might be!

Date:

Astronomy

Feb. 18, 2014 Rise Set
Actual Time 7:36 AM CST 6:02 PM CST
Civil Twilight 7:05 AM CST 6:34 PM CST
Nautical Twilight 6:28 AM CST 7:10 PM CST
Astronomical Twilight 5:52 AM CST 7:46 PM CST
Moon 10:19 PM CST (2/18) 8:51 AM CST (2/18)
Length of Visible Light 11h 29m
Length of Day
10h 25m
Waning Gibbous, 87% of the Moon is Illuminated
Feb 18
Waning Gibbous
Feb 22
Last Quarter
Mar 1
New
Mar 8
First Quarter
Mar 16
Full

Hourly Weather History & Observations

Time (CST) Temp. Windchill Dew Point Humidity Pressure Visibility Wind Dir Wind Speed Gust Speed Precip Events Conditions
12:15 AM 32.0 °F 23.0 °F 21.2 °F 64% 29.41 in 10.0 mi WSW 11.5 mph - N/A   Partly Cloudy
12:35 AM 32.0 °F 23.0 °F 23.0 °F 69% 29.41 in 10.0 mi WSW 11.5 mph - N/A   Scattered Clouds
12:55 AM 32.0 °F 22.5 °F 23.0 °F 69% 29.41 in 10.0 mi WSW 12.7 mph - N/A   Mostly Cloudy
1:15 AM 30.2 °F 20.2 °F 21.2 °F 69% 29.41 in 10.0 mi WSW 12.7 mph - N/A   Scattered Clouds
1:35 AM 30.2 °F 20.2 °F 21.2 °F 69% 29.40 in 10.0 mi WSW 12.7 mph - N/A   Clear
1:55 AM 30.2 °F 20.8 °F 21.2 °F 69% 29.41 in 10.0 mi West 11.5 mph - N/A   Partly Cloudy
2:15 AM 30.2 °F 20.2 °F 21.2 °F 69% 29.40 in 10.0 mi WSW 12.7 mph - N/A   Mostly Cloudy
2:35 AM 28.4 °F 18.5 °F 19.4 °F 69% 29.41 in 10.0 mi WSW 11.5 mph - N/A   Partly Cloudy
2:55 AM 28.4 °F 18.5 °F 19.4 °F 69% 29.41 in 10.0 mi West 11.5 mph - N/A   Clear
3:15 AM 26.6 °F 16.2 °F 19.4 °F 74% 29.41 in 10.0 mi West 11.5 mph - N/A   Partly Cloudy
3:35 AM 26.6 °F 16.8 °F 19.4 °F 74% 29.40 in 10.0 mi West 10.4 mph - N/A   Mostly Cloudy
3:55 AM 26.6 °F 17.5 °F 17.6 °F 69% 29.41 in 10.0 mi WSW 9.2 mph - N/A   Partly Cloudy
4:15 AM 26.6 °F 16.8 °F 17.6 °F 69% 29.42 in 10.0 mi WSW 10.4 mph - N/A   Clear
4:35 AM 24.8 °F 14.0 °F 15.8 °F 69% 29.43 in 10.0 mi WSW 11.5 mph - N/A   Partly Cloudy
4:55 AM 24.8 °F 14.6 °F 17.6 °F 74% 29.43 in 10.0 mi West 10.4 mph - N/A   Mostly Cloudy
5:15 AM 24.8 °F 12.9 °F 15.8 °F 69% 29.43 in 10.0 mi West 13.8 mph - N/A   Partly Cloudy
5:35 AM 26.6 °F 16.2 °F 17.6 °F 69% 29.43 in 10.0 mi WNW 11.5 mph - N/A   Clear
5:55 AM 23.0 °F 12.4 °F 15.8 °F 74% 29.44 in 10.0 mi WNW 10.4 mph - N/A   Clear
6:15 AM 21.2 °F 10.1 °F 15.8 °F 80% 29.44 in 10.0 mi WNW 10.4 mph - N/A   Clear
6:35 AM 21.2 °F 10.9 °F 14.0 °F 74% 29.45 in 10.0 mi West 9.2 mph - N/A   Clear
6:55 AM 17.6 °F 5.7 °F 10.4 °F 73% 29.45 in 10.0 mi West 10.4 mph - N/A   Clear
7:15 AM 19.4 °F 10.4 °F 12.2 °F 74% 29.45 in 10.0 mi WNW 6.9 mph - N/A   Clear
7:35 AM 17.6 °F - 10.4 °F 73% 29.46 in 10.0 mi Calm Calm - N/A   Clear
7:55 AM 15.8 °F - 8.6 °F 73% 29.48 in 10.0 mi Calm Calm - N/A   Clear
8:15 AM 17.6 °F 10.7 °F 12.2 °F 79% 29.49 in 10.0 mi WSW 4.6 mph - N/A   Clear
8:35 AM 17.6 °F 7.3 °F 10.4 °F 73% 29.51 in 10.0 mi West 8.1 mph - N/A   Clear
8:55 AM 19.4 °F 11.5 °F 10.4 °F 68% 29.52 in 10.0 mi West 5.8 mph - N/A   Clear
9:15 AM 17.6 °F 7.3 °F 10.4 °F 73% 29.53 in 10.0 mi WNW 8.1 mph - N/A   Clear
9:35 AM 23.0 °F 11.1 °F 15.8 °F 74% 29.53 in 10.0 mi WNW 12.7 mph - N/A   Clear
9:55 AM 24.8 °F 15.3 °F 15.8 °F 69% 29.54 in 10.0 mi WNW 9.2 mph - N/A   Clear
10:15 AM 24.8 °F 15.3 °F 17.6 °F 74% 29.54 in 10.0 mi WNW 9.2 mph - N/A   Clear
10:35 AM 24.8 °F 16.1 °F 17.6 °F 74% 29.55 in 10.0 mi West 8.1 mph - N/A   Clear
10:55 AM 26.6 °F 16.2 °F 17.6 °F 69% 29.56 in 10.0 mi WNW 11.5 mph - N/A   Clear
11:15 AM 26.6 °F 16.2 °F 19.4 °F 74% 29.57 in 10.0 mi WNW 11.5 mph - N/A   Clear
11:35 AM 28.4 °F 17.5 °F 19.4 °F 69% 29.58 in 10.0 mi West 13.8 mph - N/A   Clear
11:55 AM 28.4 °F 19.7 °F 19.4 °F 69% 29.59 in 10.0 mi West 9.2 mph - N/A   Clear
12:15 PM 28.4 °F 20.4 °F 19.4 °F 69% 29.59 in 10.0 mi West 8.1 mph - N/A   Clear
12:35 PM 30.2 °F 21.9 °F 19.4 °F 64% 29.60 in 10.0 mi West 9.2 mph - N/A   Clear
12:55 PM 30.2 °F 21.3 °F 19.4 °F 64% 29.60 in 10.0 mi West 10.4 mph - N/A   Clear
1:15 PM 30.2 °F 21.3 °F 21.2 °F 69% 29.60 in 10.0 mi West 10.4 mph - N/A   Clear
1:35 PM 30.2 °F 19.8 °F 21.2 °F 69% 29.60 in 10.0 mi West 13.8 mph - N/A   Clear
1:55 PM 30.2 °F 19.3 °F 19.4 °F 64% 29.61 in 10.0 mi West 15.0 mph - N/A   Clear
2:15 PM 30.2 °F 19.3 °F 19.4 °F 64% 29.61 in 10.0 mi West 15.0 mph - N/A   Clear
2:35 PM 30.2 °F 19.3 °F 21.2 °F 69% 29.61 in 10.0 mi West 15.0 mph - N/A   Clear
2:55 PM 30.2 °F 18.9 °F 19.4 °F 64% 29.61 in 10.0 mi WSW 16.1 mph - N/A   Clear
3:15 PM 30.2 °F 19.3 °F 21.2 °F 69% 29.62 in 10.0 mi WSW 15.0 mph - N/A   Clear
3:35 PM 30.2 °F 19.3 °F 19.4 °F 64% 29.63 in 10.0 mi West 15.0 mph - N/A   Clear
3:55 PM 30.2 °F 20.8 °F 21.2 °F 69% 29.64 in 10.0 mi West 11.5 mph - N/A   Clear
4:15 PM 30.2 °F 20.8 °F 19.4 °F 64% 29.64 in 10.0 mi West 11.5 mph - N/A   Clear
4:35 PM 30.2 °F 20.8 °F 19.4 °F 64% 29.64 in 10.0 mi West 11.5 mph - N/A   Clear
4:55 PM 30.2 °F 18.9 °F 19.4 °F 64% 29.64 in 10.0 mi WSW 16.1 mph - N/A   Clear
5:15 PM 30.2 °F 17.8 °F 21.2 °F 69% 29.65 in 10.0 mi West 19.6 mph - N/A   Clear
5:35 PM 30.2 °F 18.9 °F 19.4 °F 64% 29.65 in 10.0 mi West 16.1 mph - N/A   Clear
5:55 PM 30.2 °F 18.5 °F 21.2 °F 69% 29.65 in 10.0 mi West 17.3 mph - N/A   Clear
6:15 PM 30.2 °F 18.5 °F 21.2 °F 69% 29.66 in 10.0 mi West 17.3 mph - N/A   Clear
6:35 PM 30.2 °F 18.1 °F 21.2 °F 69% 29.66 in 10.0 mi West 18.4 mph - N/A   Clear
6:55 PM 30.2 °F 18.5 °F 19.4 °F 64% 29.67 in 10.0 mi West 17.3 mph - N/A   Clear
7:15 PM 30.2 °F 18.1 °F 19.4 °F 64% 29.68 in 10.0 mi West 18.4 mph 24.2 mph N/A   Clear
7:35 PM 30.2 °F 19.3 °F 19.4 °F 64% 29.68 in 10.0 mi WNW 15.0 mph - N/A   Clear
7:55 PM 28.4 °F 16.6 °F 19.4 °F 69% 29.68 in 10.0 mi WNW 16.1 mph - N/A   Clear
8:15 PM 26.6 °F 15.7 °F 17.6 °F 69% 29.69 in 10.0 mi West 12.7 mph - N/A   Clear
8:35 PM 24.8 °F 12.9 °F 17.6 °F 74% 29.69 in 10.0 mi West 13.8 mph - N/A   Clear
8:55 PM 24.8 °F 12.9 °F 15.8 °F 69% 29.69 in 10.0 mi West 13.8 mph - N/A   Clear
9:15 PM 24.8 °F 12.9 °F 14.0 °F 64% 29.69 in 10.0 mi West 13.8 mph - N/A   Clear
9:35 PM 24.8 °F 13.4 °F 15.8 °F 69% 29.69 in 10.0 mi West 12.7 mph - N/A   Clear
9:55 PM 23.0 °F 11.1 °F 15.8 °F 74% 29.69 in 10.0 mi West 12.7 mph - N/A   Clear
10:15 PM 21.2 °F 8.9 °F 14.0 °F 74% 29.68 in 10.0 mi West 12.7 mph - N/A   Clear
10:35 PM 21.2 °F 8.9 °F 14.0 °F 74% 29.68 in 10.0 mi West 12.7 mph - N/A   Clear
10:55 PM 21.2 °F 9.5 °F 12.2 °F 68% 29.68 in 10.0 mi WSW 11.5 mph - N/A   Clear
11:15 PM 19.4 °F 7.9 °F 12.2 °F 74% 29.68 in 10.0 mi West 10.4 mph - N/A   Clear
11:35 PM 19.4 °F 8.6 °F 12.2 °F 74% 29.67 in 10.0 mi West 9.2 mph - N/A   Clear
11:55 PM 19.4 °F 9.5 °F 10.4 °F 68% 29.66 in 10.0 mi WSW 8.1 mph - N/A   Clear